KAZSTSAT (43783 NORAD) Tracking and Keplerian Element Data

This shows tracking and keplerian element data for the satellite.

Feedback or suggestion? Click here.




ElementValue
Catalog43783
NameKAZSTSAT
Epoch Orbit431
Epoch Day1.73167933
Epoch Year2019
RAAN75.6017
Inclination97.7643
Eccentricity0.0014459
Argument of Perigee159.5602
Mean Anonmoly200.62
Mean Motion14.95050888
Decay Rate1.56E-06
L11 43783U 18099AB 19001.73167933 .00000156 00000-0 19498-4 0 9999
L22 43783 97.7643 75.6017 0014459 159.5602 200.6200 14.95050888 4316

Live tracking and technical data element details for KAZSTSAT (NORAD 43783). KAZSTSAT can be tracked NOW for your location showing map with azimuth and elevation plus other details from your city location.

Track the satellite on the map from your city or location and see movement details for azimuth, elevation, latitude, longitude, range, height, and movement on the map or in text.







IsCatalogInMostPopularTable: catalog: 43783, numindb: 17
Update: records affected: 1



GetName: 43783 KAZSTSAT

Hit Count: updated at: Fri, 18 Jan 2019 22:55:22 GMT